Location: Dyersburg
(36.0438°N, 89.3789°W)
Time: 14:06:11
(UTC+00:00)

N. Korean satellite - Visible Passes

Search period start: 17 January 2020 00:00
Search period end: 27 January 2020 00:00
Orbit: 454 x 508 km, 97.2° (Epoch: 17 January)

Date Brightness Start Highest point End Pass type
(mag) Time Alt. Az. Time Alt. Az. Time Alt. Az.
17 Jan 9.8 10:49:22 10° ENE 10:51:18 14° E 10:53:13 10° SE visible
17 Jan 7.5 12:21:41 10° NNW 12:24:41 26° WNW 12:27:42 10° SW visible
18 Jan 6.5 11:55:48 10° N 11:59:17 62° WNW 12:02:48 10° SSW visible
19 Jan 9.9 00:03:44 10° WSW 00:05:18 13° W 00:06:52 10° WNW visible
19 Jan 7.3 11:30:21 10° NNE 11:33:49 54° E 11:37:19 10° S visible
19 Jan 9.0 23:36:43 10° SSW 23:39:41 27° W 23:42:40 10° NW visible
20 Jan 9.0 11:05:22 10° NE 11:08:17 23° E 11:11:12 10° SSE visible
21 Jan 10.1 10:41:38 10° ENE 10:42:39 11° E 10:43:41 10° ESE visible
21 Jan 7.1 12:12:52 10° N 12:16:07 34° WNW 12:19:25 10° SW visible
22 Jan 6.4 11:47:09 10° N 11:50:42 83° WNW 11:54:18 10° SSW visible
22 Jan 9.7 23:54:25 10° SW 23:56:38 16° W 23:58:51 10° NW visible
23 Jan 7.9 11:21:49 10° NNE 11:25:13 40° E 11:28:38 10° S visible
24 Jan 9.4 10:57:03 10° NE 10:59:38 19° E 11:02:14 10° SE visible
24 Jan 7.8 12:30:09 10° NNW 12:32:55 21° WNW 12:35:41 10° WSW visible
25 Jan 6.8 12:04:06 10° N 12:07:33 46° WNW 12:11:02 10° SSW visible
26 Jan 6.7 11:38:30 10° NNE 11:42:06 74° ESE 11:45:44 10° S visible
26 Jan 9.6 23:45:18 10° SSW 23:47:57 21° W 23:50:36 10° NW visible
